Location: Dackenheim
(49.5215°N, 8.1854°E)
Time: 03:24:13
(UTC+00:00)

UWE-3 - Pass Details

Date: 15 March 2026
Orbit: 543 x 612 km, 97.9° (Epoch: 12 April)

Event Time Altitude Azimuth Distance (km) Brightness Sun altitude
Rises 04:00:49 0° 358° (N) 2,892 ? -16.9°
Reaches altitude 10° 04:04:04 10° 332° (NNW) 1,976 ? -16.4°
Enters shadow 04:05:43 13° 309° (NW) 1,770 ? -16.2°
